TOURFACTS.DK  
Stats and Facts from Tour de France.

Tour de France 2018 starts in 316 days
  Riders   Stages   Teams   Summits   Yearly  


 
Search by year

 2017 - St. 21:  14824 starters.
  5131 different riders.
  634 teams.
  2232 stages.
  454 restdays.
  439589.60 km.
  5653 abandonnees.


Top 3
Christopher Froome86:20:55
Rigoberto Uran86:21:49
Romain Bardet86:23:15
Warren Barguil169 pt.
Primoz Roglic80 pt.
Thomas De Gendt64 pt.
Michael Matthews359 pt.
André Greipel234 pt.
Edvald Boasson Hagen220 pt.
Simon Yates86:27:09
Louis Meintjes86:29:15
Emanuel Buchmann86:54:16
Facts from Tour de France 1938
  |   Stages.  |   Stage winners.  |   Days in yellow  |   Average speed.  |   Route.  |   Teams.  |   All riders.  |   Rookies.  |   Withdrawls.  |  

  |   GC.  |   Polka  |   Green  |   White  |   Summits. (In tour)  |   Summits. (Points)  |   Miscellaneous.  |  

Stage 17a on 25 - 07 - 1938
         Owning:    Gino Bartali    
Pick a stage:  1 2 3 4a 4b 4c 5 6a 6b 7 8 9 10a 10b 10c 11 12 13 14 15 16 17a 17b 18 19 20a 20b 20c 21
  BesançonBelfort | Dist: 89.50 km.

Average speed for all riders in stage:  35,012 km./hr.
    Place:Name:Team:Time:Km/h:
BELEmile Masson jr.BELBelgium02:27:48  +  00:00:00=36,333 
GEROtto WeckerlingDEUGermany02:27:48  +  00:00:00=36,333 
3 SUIPaul EgliCHESwitzerland02:27:48  +  00:00:00=36,333 
4 FRARobert TanneveauFRACadets02:27:48  +  00:00:00=36,333 
FRAJean FréchautFRAFrance02:29:56  +  00:02:08=35,816 
6 FRALucien Le GuevelFRABluets02:29:56  +  00:02:08=35,816 
7 LUXFrançois NeuensLUXLuxembourg02:30:49  +  00:03:01=35,606 
8 SUIRaymond LouviotFRACadets02:30:49  +  00:03:01=35,606 
9 LUXJean MajerusLUXLuxembourg02:30:49  +  00:03:01=35,606 
10 BELConstant LauwersBELBelgium02:33:47  +  00:05:59=34,919 
11 FRAAlbert BourlonFRABluets02:33:47  +  00:05:59=34,919 
12 ITAAldo BiniITAItaly02:34:02  +  00:06:14=34,863 
13 ITAGlauco ServadeiITAItaly02:34:02  +  00:06:14=34,863 
14 ITAOreste BernardoniFRABluets02:34:02  +  00:06:14=34,863 
15 BELSylvère MaesBELBelgium02:34:02  +  00:06:14=34,863 
16 BELMarcel KintBELBelgium02:34:02  +  00:06:14=34,863 
17 BELFélicien VervaeckeBELBelgium02:34:02  +  00:06:14=34,863 
18 BELAlbertin DisseauxBELBelgium02:34:02  +  00:06:14=34,863 
19 BELJules LowieBELBelgium02:34:02  +  00:06:14=34,863 
20 BELEdward VissersBELBelgium02:34:02  +  00:06:14=34,863 
21 BELFrançois NeuvilleBELBelgium02:34:02  +  00:06:14=34,863 
22 BELRene WalschotBELBelgium02:34:02  +  00:06:14=34,863 
23 ITAGino BartaliITAItaly02:34:02  +  00:06:14=34,863 
24 ITAVasco BergamaschiITAItaly02:34:02  +  00:06:14=34,863 
25 ITAEnrico MolloITAItaly02:34:02  +  00:06:14=34,863 
26 ITAMario ViciniITAItaly02:34:02  +  00:06:14=34,863 
27 ITAGiordano CotturITAItaly02:34:02  +  00:06:14=34,863 
28 ITALuigi IntrozziITAItaly02:34:02  +  00:06:14=34,863 
29 ITAGiuseppe MartanoITAItaly02:34:02  +  00:06:14=34,863 
30 GERHerbert HauswaldDEUGermany02:34:02  +  00:06:14=34,863 
31 GERReinhold WendelDEUGermany02:34:02  +  00:06:14=34,863 
32 GERJosef ArentsDEUGermany02:34:02  +  00:06:14=34,863 
33 FRAAntonin MagneFRAFrance02:34:02  +  00:06:14=34,863 
34 FRAPierre GallienFRAFrance02:34:02  +  00:06:14=34,863 
35 FRAPierre JaminetFRAFrance02:34:02  +  00:06:14=34,863 
36 ITADante GianelloFRABluets02:34:02  +  00:06:14=34,863 
37 FRAVictor CossonFRAFrance02:34:02  +  00:06:14=34,863 
38 FRAJean-Marie GoasmatFRAFrance02:34:02  +  00:06:14=34,863 
39 ESPMariano CañardoESPSpain02:34:02  +  00:06:14=34,863 
40 ESPJulián BerrenderoESPSpain02:34:02  +  00:06:14=34,863 
41 ESPRafael RamosESPSpain02:34:02  +  00:06:14=34,863 
42 NEDJanus HellemonsNLDHolland02:34:02  +  00:06:14=34,863 
43 NEDTheo MiddelkampNLDHolland02:34:02  +  00:06:14=34,863 
44 NEDAntoon Van SchendelNLDHolland02:34:02  +  00:06:14=34,863 
45 FRAMathias ClemensLUXLuxembourg02:34:02  +  00:06:14=34,863 
46 LUXArsène MerschLUXLuxembourg02:34:02  +  00:06:14=34,863 
47 FRAAndré LeducqFRACadets02:34:02  +  00:06:14=34,863 
48 FRAFabien GalateauFRACadets02:34:02  +  00:06:14=34,863 
49 FRARobert OubronFRACadets02:34:02  +  00:06:14=34,863 
50 FRACamille LeroyFRABluets02:34:02  +  00:06:14=34,863 
51 FRAJean FontenayFRACadets02:34:02  +  00:06:14=34,863 
52 FRAYvan MarieFRACadets02:34:02  +  00:06:14=34,863 
53 FRARaymond PassatFRACadets02:34:02  +  00:06:14=34,863 
54 SUIBruno CariniFRACadets02:34:35  +  00:06:47=34,739 
55 ITANello TroggiITAItaly02:36:47  +  00:08:59=34,251 
56 FRAGeorges NaisseFRAFrance02:37:05  +  00:09:17=34,186 


Todays birthdays.

1924  Siro Bianchi
1930  Renzo Accordi
1933  Manfred Donike
1952  Cristóbal Pérez
1958  Rafaël Tolosa
1960  Hubert Seiz
1964  Johan Bruyneel
1969  Enrico Poitschke